Location: eljas
(40.1958°N, 6.8661°W)
Time: 16:13:19
(UTC+02:00)

ISS - All Passes

Search period start: 30 March 2015 00:00
Search period end: 09 April 2015 00:00
Orbit: 396 x 406 km, 51.6° (Epoch: 30 March)

Date Brightness Start Highest point End Pass type
(mag) Time Alt. Az. Time Alt. Az. Time Alt. Az.
30 Mar - 00:28:16 10° SW 00:31:29 64° SE 00:34:43 10° ENE night (unlit)
30 Mar - 02:05:35 10° WNW 02:08:09 21° NNW 02:10:42 10° NNE night (unlit)
30 Mar - 03:44:28 10° NNW 03:45:30 11° N 03:46:33 10° NNE night (unlit)
30 Mar - 05:20:44 10° NNW 05:22:56 17° NNE 05:25:09 10° ENE visible
30 Mar - 06:56:32 10° NW 06:59:47 78° NE 07:02:59 10° SE visible
30 Mar - 08:35:08 10° WSW 08:35:47 10° SW 08:36:17 10° SW daylight
30 Mar - 23:35:16 10° SSW 23:38:10 30° SE 23:41:06 10° ENE night (unlit)
31 Mar - 01:11:36 10° W 01:14:33 31° NNW 01:17:31 10° NE night (unlit)
31 Mar - 02:50:20 10° NW 02:51:45 12° N 02:53:09 10° NNE night (unlit)
31 Mar - 04:27:34 10° NNW 04:29:14 13° NNE 04:30:55 10° NE night (unlit)
31 Mar - 06:03:13 10° NW 06:06:19 41° NNE 06:09:23 10° ESE visible
31 Mar - 07:40:01 10° W 07:42:33 21° SW 07:45:01 10° S visible
31 Mar - 22:42:54 10° S 22:44:53 16° SE 22:46:58 10° E night (unlit)
01 Apr - 00:17:50 10° WSW 00:21:01 54° NNW 00:24:14 10° NE night (unlit)
01 Apr - 01:56:03 10° NW 01:58:00 15° NNW 01:59:55 10° NNE night (unlit)
01 Apr - 03:34:15 10° NNW 03:35:27 12° N 03:36:40 10° NNE night (unlit)
01 Apr - 05:09:57 10° NNW 05:12:44 25° NNE 05:15:30 10° E visible
01 Apr - 06:46:09 10° WNW 06:49:14 42° SW 06:52:17 10° SSE visible
01 Apr - 23:24:18 10° SW 23:27:33 76° SE 23:30:49 10° NE night (unlit)
02 Apr - 01:01:48 10° WNW 01:04:16 19° NNW 01:06:43 10° NNE night (unlit)
02 Apr - 02:40:37 10° NNW 02:41:38 11° N 02:42:40 10° NNE night (unlit)
02 Apr - 04:16:44 10° NNW 04:19:02 18° NNE 04:21:22 10° ENE night (unlit)
02 Apr - 05:52:35 10° NW 05:55:49 89° SW 05:59:03 10° SE visible
02 Apr - 22:31:07 10° SSW 22:34:08 36° SE 22:37:10 10° ENE visible
03 Apr - 00:07:41 10° W 00:10:35 28° NNW 00:13:27 10° NE night (unlit)
03 Apr - 01:46:28 10° NNW 01:47:48 12° N 01:49:06 10° NNE night (unlit)
03 Apr - 03:23:29 10° NNW 03:25:16 14° NNE 03:27:05 10° NE night (unlit)
03 Apr - 04:59:09 10° NW 05:02:17 46° NNE 05:05:25 10° ESE night (unlit)
03 Apr - 06:36:09 10° W 06:38:28 18° SW 06:40:43 10° S visible
03 Apr - 21:38:29 10° S 21:40:45 18° SE 21:43:06 10° E visible
03 Apr - 23:13:46 10° WSW 23:16:56 47° NNW 23:20:06 10° NE visible
04 Apr - 00:52:07 10° NW 00:53:57 14° NNW 00:55:46 10° NNE night (unlit)
04 Apr - 02:30:08 10° NNW 02:31:25 12° N 02:32:44 10° NNE night (unlit)
04 Apr - 04:05:48 10° NW 04:08:39 28° NNE 04:11:30 10° E night (unlit)
04 Apr - 05:42:05 10° WNW 05:45:06 36° SW 05:48:04 10° SSE night (unlit)
04 Apr - 22:20:06 10° SW 22:23:22 88° SE 22:26:38 10° NE visible
04 Apr - 23:57:46 10° WNW 00:00:08 18° NNW 00:02:28 10° NNE visible
05 Apr - 01:36:29 10° NNW 01:37:31 11° N 01:38:34 10° NNE night (unlit)
05 Apr - 03:12:29 10° NNW 03:14:54 19° NNE 03:17:20 10° ENE night (unlit)
05 Apr - 04:48:22 10° NW 04:51:37 77° SW 04:54:50 10° SE night (unlit)
05 Apr - 21:26:45 10° SSW 21:29:50 42° SE 21:32:57 10° ENE visible
05 Apr - 23:03:32 10° W 23:06:20 26° NNW 23:09:08 10° NNE visible
06 Apr - 00:42:21 10° NNW 00:43:36 12° N 00:44:50 10° NNE visible
06 Apr - 02:19:08 10° NNW 02:21:03 15° NNE 02:22:59 10° NE night (unlit)
06 Apr - 03:54:50 10° NW 03:58:01 53° NNE 04:01:12 10° ESE night (unlit)
06 Apr - 05:32:05 10° W 05:34:08 16° SW 05:36:07 10° S night (unlit)
06 Apr - 20:33:52 10° S 20:36:22 21° SE 20:38:56 10° E daylight
06 Apr - 22:09:29 10° WSW 22:12:36 42° NNW 22:15:43 10° NE visible
06 Apr - 23:47:56 10° NW 23:49:40 13° NNW 23:51:22 10° NNE visible
07 Apr - 01:25:44 10° NNW 01:27:08 12° N 01:28:33 10° NE night (unlit)
07 Apr - 03:01:23 10° NW 03:04:19 30° NNE 03:07:15 10° E night (unlit)
07 Apr - 04:37:46 10° WNW 04:40:42 31° SW 04:43:34 10° SSE night (unlit)
07 Apr - 19:42:24 10° SE 19:42:56 10° SE 19:43:36 10° ESE daylight
07 Apr - 21:15:40 10° SW 21:18:55 80° NW 21:22:12 10° NE daylight
07 Apr - 22:53:29 10° WNW 22:55:45 17° NNW 22:57:59 10° NNE visible
08 Apr - 00:32:05 10° NNW 00:33:09 11° N 00:34:13 10° NNE visible
08 Apr - 02:07:59 10° NNW 02:10:29 20° NNE 02:13:01 10° ENE night (unlit)
08 Apr - 03:43:56 10° WNW 03:47:09 66° SW 03:50:21 10° SE night (unlit)
08 Apr - 20:22:09 10° SW 20:25:18 48° SE 20:28:29 10° ENE daylight
08 Apr - 21:59:07 10° W 22:01:51 24° NNW 22:04:34 10° NNE visible
08 Apr - 23:37:58 10° NNW 23:39:08 11° N 23:40:18 10° NNE visible
